NOAA 16 DEB

Satellite information

Favourite Embed

Satellite Type and Status

DEBRISIN ORBIT

Key statistics

Satellite NOAA 16 DEB at a glance.

Uptime

8995

Days in orbit

Revolutions

≈ 14.5

Per day

Orbit

SSO

Sun Synchronous Orbit

Inclination

99.0

Latest

Satellite identification and parameters

Extended collection of information and parameters for NOAA 16 DEB.

Object identification

Identified? True

Debris? True

Object name: NOAA 16 DEB

International designator: 2000-055SZ

Object number (NORAD): 42405

Object ID (CCSDS): 42405

Country: UNITED STATES OF AMERICA (US)

Current information (Y/N): Y

RCS size: SMALL

Orbital parameters

Period: 99.52 minutes

Inclination: 99.0456 deg

SMA: 7113.767 km

Apoapsis: 753.52 km

Periapsis: 717.744 km

RAAN: 343.4822 deg

Eccentricy: 0.0025145

Argument of periapsis: 256.6106 deg

Mean anomaly: 103.2281 deg

Mean motion: 14.46949261 rev/day

Mean motion (dot): 0.00007682 rev/day2

B* drag term: 0.0021177 1/REarth

Two-line elements (TLE)

Creation date: May 7, 2025, 3:14 a.m.

Reference frame: TEME

Reference center: EARTH

Epoch: May 6, 2025, 8:02 p.m. UTC

TLE line 0: 0 NOAA 16 DEB

TLE line 1: 1 42405U 00055SZ 25126.83486559 .00007682 00000-0 21177-2 0 9992

TLE line 2: 2 42405 99.0456 343.4822 0025145 256.6106 103.2281 14.46949261474928

Live tracking on map

Real-time ground track for satellite NOAA 16 DEB.

In-orbit conjunctions

A list of the most updated potential collisions computed for object NOAA 16 DEB.

Target Orbit TCA Probability of collision Miss distance Type
CZ-6A DEB LEO 2024-12-16 23:49:19 0.0003028066 942.0 (m) DEBRIS
TIROS 4 LEO 2024-12-15 08:59:34 0.0002424227 607.0 (m) PAYLOAD
COSMOS 2251 DEB LEO 2024-09-26 20:58:10 0.0002809169 996.0 (m) DEBRIS

Associated space launch

The NOAA K, L and M POES satellites begin the fifth generation of improved environmental monitoring in support of NOAA missions. The instrument payload has significant improvements and additions/deletions. The instrument changes have effected the spacecraft subsystems and data formats.

NOAA 16 DEB was lifted into orbit during the mission ‘Titan II SLV | NOAA 16’, on board a Titan II SLV space rocket.

The launch took place on Sept. 21, 2000, 10:22 a.m. from Space Launch Complex 4W.

For more information about the launch, click the button.

Launch to space Titan II SLV | NOAA 16
Titan II SLV | NOAA 16

Agency: N/A

Status: Launch Successful

Launch date: Sept. 21, 2000, 10:22 a.m. UTC

Rocket: Titan II SLV

Launch pad: Space Launch Complex 4W

Location: Vandenberg SFB, CA, USA

...

Latest news about this satellite

There are no fresh news available about this satellite. Check back as we update our databases every day.


Newsletter sign-up

Weekly statistics, charts and insights to help you stay on top of the space industry.